SIA511 VOBL-WSSS

Flight info

Callsign SIA511
Flight time 4h 2m
Altitude 41000
Route TULNA W116 MMV P574 PUGER R461 VIDEX Y511 TOPOR A464 ARAMA DCT TEBUN
Aircraft A359/H-SDE1E2E3GHIJ1J2J3J5M1P2RWXYZ/LB1D1

Departure

Time 2026-05-08 14:46
Airport Kempegowda International Airport Bengaluru (VOBL)

Arrival

Time 2026-05-08 18:49
Airport Singapore Changi Airport (WSSS)
Time Latitude Longitude Altitude Speed Heading
2026-05-08 14:14 13.20073 77.71664 2945 ft 0 kts 175°
2026-05-08 14:31 13.20086 77.71663 2932 ft 3 kts 177°
2026-05-08 14:32 13.20133 77.71663 2936 ft 3 kts 180°
2026-05-08 14:32 13.20153 77.71662 2935 ft 3 kts 160°
2026-05-08 14:32 13.20172 77.71650 2935 ft 3 kts 123°
2026-05-08 14:32 13.20181 77.71628 2940 ft 4 kts 98°
2026-05-08 14:33 13.20182 77.71604 2933 ft 4 kts 90°
2026-05-08 14:33 13.20182 77.71592 2933 ft 3 kts 90°
2026-05-08 14:36 13.20182 77.71593 2933 ft 1 kts 90°
2026-05-08 14:36 13.20182 77.71616 2933 ft 6 kts 90°
2026-05-08 14:37 13.20182 77.71684 2932 ft 12 kts 90°
2026-05-08 14:37 13.20183 77.71763 2933 ft 8 kts 78°
2026-05-08 14:37 13.20229 77.71786 2929 ft 9 kts 359°
2026-05-08 14:37 13.20300 77.71786 2930 ft 12 kts
2026-05-08 14:38 13.20389 77.71787 2938 ft 13 kts
2026-05-08 14:38 13.20475 77.71787 2934 ft 8 kts
2026-05-08 14:38 13.20515 77.71765 2931 ft 6 kts 293°
2026-05-08 14:38 13.20520 77.71718 2935 ft 7 kts 272°
2026-05-08 14:39 13.20521 77.71657 2937 ft 10 kts 270°
2026-05-08 14:39 13.20522 77.71572 2939 ft 14 kts 270°
2026-05-08 14:39 13.20523 77.71459 2941 ft 18 kts 270°
2026-05-08 14:39 13.20524 77.71319 2950 ft 21 kts 270°
2026-05-08 14:40 13.20525 77.71159 2954 ft 23 kts 269°
2026-05-08 14:40 13.20526 77.70997 2957 ft 22 kts 271°
2026-05-08 14:40 13.20528 77.70840 2950 ft 22 kts 270°
2026-05-08 14:40 13.20529 77.70688 2953 ft 21 kts 270°
2026-05-08 14:41 13.20530 77.70541 2968 ft 20 kts 270°
2026-05-08 14:41 13.20531 77.70399 2971 ft 20 kts 270°
2026-05-08 14:41 13.20531 77.70256 2975 ft 20 kts 271°
2026-05-08 14:41 13.20533 77.70109 2978 ft 21 kts 270°
2026-05-08 14:42 13.20535 77.69954 2982 ft 22 kts 270°
2026-05-08 14:42 13.20536 77.69793 2985 ft 23 kts 270°
2026-05-08 14:42 13.20537 77.69628 2989 ft 23 kts 270°
2026-05-08 14:42 13.20539 77.69458 2992 ft 24 kts 270°
2026-05-08 14:43 13.20541 77.69286 2996 ft 24 kts 270°
2026-05-08 14:43 13.20542 77.69118 3000 ft 23 kts 270°
2026-05-08 14:43 13.20543 77.68956 3003 ft 23 kts 270°
2026-05-08 14:43 13.20544 77.68798 3007 ft 22 kts 270°
2026-05-08 14:44 13.20545 77.68679 3010 ft 6 kts 271°
2026-05-08 14:44 13.20549 77.68637 3011 ft 5 kts 291°
2026-05-08 14:44 13.20577 77.68621 3012 ft 6 kts 347°
2026-05-08 14:44 13.20627 77.68620 3012 ft 9 kts 359°
2026-05-08 14:45 13.20693 77.68623 3012 ft 10 kts 14°
2026-05-08 14:45 13.20717 77.68680 3010 ft 11 kts 89°
2026-05-08 14:45 13.20717 77.68859 3007 ft 52 kts 90°
2026-05-08 14:45 13.20711 77.69436 2993 ft 110 kts 90°
2026-05-08 14:46 13.20705 77.70401 2982 ft 159 kts 90°
2026-05-08 14:46 13.20666 77.71532 3554 ft 156 kts 95°
2026-05-08 14:46 13.20603 77.72658 4127 ft 158 kts 91°
2026-05-08 14:46 13.21053 77.73650 4731 ft 154 kts 55°
2026-05-08 14:47 13.21743 77.74496 5220 ft 153 kts 55°
2026-05-08 14:47 13.22384 77.75372 5705 ft 156 kts 58°
2026-05-08 14:47 13.22992 77.76323 6121 ft 165 kts 60°
2026-05-08 14:47 13.23616 77.77399 6350 ft 186 kts 62°
2026-05-08 14:48 13.24283 77.78630 6607 ft 206 kts 63°
2026-05-08 14:48 13.24979 77.79957 7103 ft 217 kts 63°
2026-05-08 14:48 13.25705 77.81361 7589 ft 229 kts 63°
2026-05-08 14:48 13.26437 77.82870 8098 ft 243 kts 69°
2026-05-08 14:49 13.26750 77.84015 8452 ft 252 kts 82°
2026-05-08 14:49 13.26842 77.85861 8938 ft 267 kts 90°
2026-05-08 14:49 13.26806 77.87817 9480 ft 279 kts 90°
2026-05-08 14:49 13.26764 77.89830 10107 ft 285 kts 90°
2026-05-08 14:50 13.26728 77.91883 10740 ft 291 kts 90°
2026-05-08 14:50 13.26698 77.93946 11423 ft 294 kts 90°
2026-05-08 14:50 13.26672 77.96057 12130 ft 298 kts 90°
2026-05-08 14:50 13.26648 77.98203 12794 ft 303 kts 90°
2026-05-08 14:51 13.26628 78.00385 13461 ft 308 kts 90°
2026-05-08 14:51 13.26605 78.02592 14104 ft 311 kts 90°
2026-05-08 14:51 13.26583 78.04823 14693 ft 316 kts 90°
2026-05-08 14:51 13.26557 78.07091 15288 ft 320 kts 90°
2026-05-08 14:52 13.26366 78.09382 15900 ft 325 kts 100°
2026-05-08 14:52 13.25106 78.14052 16514 ft 354 kts 108°
2026-05-08 14:52 13.24363 78.16510 16781 ft 367 kts 108°
2026-05-08 14:53 13.23597 78.19061 17023 ft 380 kts 107°
2026-05-08 14:53 13.22814 78.21694 17261 ft 391 kts 108°
2026-05-08 14:53 13.22012 78.24402 17531 ft 401 kts 108°
2026-05-08 14:53 13.21200 78.27152 17911 ft 406 kts 108°
2026-05-08 14:54 13.20376 78.29946 18315 ft 411 kts 108°
2026-05-08 14:54 13.19546 78.32759 18724 ft 413 kts 108°
2026-05-08 14:54 13.18711 78.35586 19139 ft 415 kts 108°
2026-05-08 14:54 13.17871 78.38428 19527 ft 418 kts 108°
2026-05-08 14:55 13.17027 78.41287 19944 ft 419 kts 108°
2026-05-08 14:55 13.16178 78.44156 20354 ft 422 kts 108°
2026-05-08 14:55 13.15327 78.47032 20766 ft 424 kts 108°
2026-05-08 14:55 13.14480 78.49893 21171 ft 426 kts 108°
2026-05-08 14:56 13.13605 78.52848 21582 ft 428 kts 108°
2026-05-08 14:56 13.12737 78.55775 21994 ft 430 kts 108°
2026-05-08 14:56 13.11864 78.58718 22408 ft 432 kts 108°
2026-05-08 14:56 13.10998 78.61638 22780 ft 435 kts 108°
2026-05-08 14:57 13.10114 78.64615 23196 ft 437 kts 107°
2026-05-08 14:57 13.09228 78.67600 23603 ft 439 kts 108°
2026-05-08 14:57 13.08334 78.70610 23811 ft 444 kts 108°
2026-05-08 14:57 13.07429 78.73655 24066 ft 448 kts 108°
2026-05-08 14:58 13.06519 78.76718 24415 ft 450 kts 108°
2026-05-08 14:58 13.05605 78.79789 24746 ft 452 kts 108°
2026-05-08 14:58 13.04685 78.82882 25083 ft 455 kts 108°
2026-05-08 14:58 13.03759 78.85992 25419 ft 457 kts 108°
2026-05-08 14:59 13.02827 78.89121 25794 ft 460 kts 108°
2026-05-08 14:59 13.00945 78.95433 26550 ft 466 kts 108°
2026-05-08 14:59 12.99994 78.98621 26937 ft 469 kts 108°
2026-05-08 15:00 12.99037 79.01826 27333 ft 472 kts 108°
2026-05-08 15:00 12.98072 79.05056 27689 ft 476 kts 108°
2026-05-08 15:00 12.97097 79.08302 28063 ft 479 kts 109°
2026-05-08 15:00 12.96215 79.11615 28322 ft 484 kts 99°
2026-05-08 15:01 12.96040 79.15068 28691 ft 487 kts 90°
2026-05-08 15:01 12.96223 79.18537 29165 ft 487 kts 86°
2026-05-08 15:01 12.96506 79.22009 29508 ft 491 kts 86°
2026-05-08 15:01 12.96772 79.25508 29884 ft 493 kts 87°
2026-05-08 15:02 12.96977 79.29026 30173 ft 497 kts 88°
2026-05-08 15:02 12.97121 79.32576 30471 ft 499 kts 89°
2026-05-08 15:02 12.97220 79.36127 30799 ft 500 kts 90°
2026-05-08 15:02 12.97293 79.39707 31072 ft 503 kts 90°
2026-05-08 15:03 12.97355 79.43290 31395 ft 503 kts 91°
2026-05-08 15:03 12.97413 79.46889 31623 ft 506 kts 91°
2026-05-08 15:03 12.97472 79.50501 31928 ft 508 kts 91°
2026-05-08 15:03 12.97533 79.54074 32183 ft 509 kts 91°
2026-05-08 15:04 12.97597 79.57705 32452 ft 510 kts 91°
2026-05-08 15:04 12.97662 79.61349 32722 ft 512 kts 91°
2026-05-08 15:04 12.97728 79.65000 32971 ft 513 kts 91°
2026-05-08 15:04 12.97795 79.68655 33319 ft 512 kts 91°
2026-05-08 15:05 12.97860 79.72297 33719 ft 510 kts 91°
2026-05-08 15:05 12.97925 79.75929 34054 ft 509 kts 91°
2026-05-08 15:05 12.97988 79.79549 34347 ft 507 kts 91°
2026-05-08 15:05 12.98050 79.83168 34524 ft 510 kts 91°
2026-05-08 15:06 12.98111 79.86804 34716 ft 510 kts 91°
2026-05-08 15:06 12.98173 79.90437 35028 ft 508 kts 92°
2026-05-08 15:06 12.98234 79.94052 35345 ft 506 kts 92°
2026-05-08 15:06 12.98294 79.97654 35654 ft 504 kts 92°
2026-05-08 15:07 12.98353 80.01244 35942 ft 503 kts 92°
2026-05-08 15:07 12.98413 80.04825 36221 ft 502 kts 92°
2026-05-08 15:07 12.98472 80.08397 36493 ft 501 kts 92°
2026-05-08 15:07 12.98436 80.11957 36785 ft 498 kts 97°
2026-05-08 15:08 12.97984 80.15451 37065 ft 494 kts 105°
2026-05-08 15:08 12.97412 80.17706 37224 ft 493 kts 110°
2026-05-08 15:08 12.95768 80.22085 37452 ft 493 kts 115°
2026-05-08 15:08 12.94404 80.25303 37688 ft 491 kts 116°
2026-05-08 15:09 12.93002 80.28485 38017 ft 488 kts 117°
2026-05-08 15:09 12.91594 80.31645 38270 ft 487 kts 117°
2026-05-08 15:09 12.90190 80.34798 38494 ft 486 kts 117°
2026-05-08 15:09 12.88795 80.37949 38681 ft 485 kts 117°
2026-05-08 15:10 12.87409 80.41098 38847 ft 484 kts 117°
2026-05-08 15:10 12.86029 80.44245 39012 ft 484 kts 117°
2026-05-08 15:10 12.84654 80.47389 39182 ft 483 kts 117°
2026-05-08 15:10 12.83283 80.50528 39336 ft 482 kts 117°
2026-05-08 15:11 12.81912 80.53664 39482 ft 482 kts 117°
2026-05-08 15:11 12.80541 80.56799 39580 ft 483 kts 117°
2026-05-08 15:11 12.79166 80.59941 39688 ft 483 kts 117°
2026-05-08 15:11 12.77792 80.63080 39822 ft 483 kts 117°
2026-05-08 15:12 12.76422 80.66208 39975 ft 482 kts 117°
2026-05-08 15:12 12.75051 80.69336 40121 ft 481 kts 117°
2026-05-08 15:12 12.73682 80.72459 40259 ft 480 kts 117°
2026-05-08 15:12 12.72314 80.75578 40389 ft 480 kts 117°
2026-05-08 15:13 12.70948 80.78693 40522 ft 479 kts 117°
2026-05-08 15:13 12.69582 80.81804 40634 ft 479 kts 117°
2026-05-08 15:13 12.68235 80.84871 40745 ft 478 kts 117°
2026-05-08 15:13 12.66871 80.87977 40834 ft 478 kts 117°
2026-05-08 15:14 12.64141 80.94187 40844 ft 478 kts 117°
2026-05-08 15:14 12.61413 81.00386 40855 ft 477 kts 117°
2026-05-08 15:15 12.58690 81.06571 40842 ft 476 kts 117°
2026-05-08 15:15 12.55971 81.12739 40842 ft 476 kts 117°
2026-05-08 15:16 12.53248 81.18912 40843 ft 476 kts 117°
2026-05-08 15:16 12.50523 81.25085 40842 ft 476 kts 117°
2026-05-08 15:17 12.47797 81.31258 40841 ft 476 kts 118°
2026-05-08 15:17 12.45067 81.37434 40842 ft 476 kts 118°
2026-05-08 15:18 12.42336 81.43610 40842 ft 476 kts 118°
2026-05-08 15:18 12.39602 81.49786 40842 ft 476 kts 118°
2026-05-08 15:19 12.36867 81.55960 40842 ft 476 kts 118°
2026-05-08 15:19 12.34134 81.62125 40842 ft 476 kts 118°
2026-05-08 15:20 12.31395 81.68299 40841 ft 477 kts 118°
2026-05-08 15:20 12.28646 81.74491 40843 ft 479 kts 118°
2026-05-08 15:21 12.25891 81.80692 40844 ft 479 kts 118°
2026-05-08 15:21 12.23139 81.86883 40841 ft 478 kts 118°
2026-05-08 15:22 12.20387 81.93071 40843 ft 478 kts 118°
2026-05-08 15:22 12.17651 81.99216 40843 ft 478 kts 118°
2026-05-08 15:23 12.14896 82.05401 40842 ft 478 kts 118°
2026-05-08 15:23 12.12124 82.11618 40843 ft 478 kts 118°
2026-05-08 15:24 12.09385 82.17758 40841 ft 478 kts 118°
2026-05-08 15:24 12.06626 82.23938 40843 ft 478 kts 118°
2026-05-08 15:25 12.03866 82.30116 40842 ft 478 kts 118°
2026-05-08 15:25 12.01105 82.36293 40842 ft 478 kts 118°
2026-05-08 15:26 11.98341 82.42469 40840 ft 479 kts 117°
2026-05-08 15:26 11.95565 82.48669 40843 ft 481 kts 117°
2026-05-08 15:27 11.92783 82.54880 40843 ft 479 kts 117°
2026-05-08 15:27 11.90023 82.61038 40842 ft 476 kts 117°
2026-05-08 15:28 11.87268 82.67182 40842 ft 476 kts 117°
2026-05-08 15:28 11.84511 82.73323 40842 ft 476 kts 117°
2026-05-08 15:29 11.81752 82.79462 40842 ft 476 kts 117°
2026-05-08 15:29 11.79005 82.85572 40839 ft 477 kts 117°
2026-05-08 15:30 11.76233 82.91735 40840 ft 478 kts 117°
2026-05-08 15:30 11.73460 82.97896 40839 ft 478 kts 117°
2026-05-08 15:31 11.70685 83.04056 40840 ft 478 kts 117°
2026-05-08 15:31 11.67912 83.10208 40841 ft 478 kts 117°
2026-05-08 15:32 11.65134 83.16366 40838 ft 478 kts 117°
2026-05-08 15:32 11.62355 83.22526 40839 ft 478 kts 117°
2026-05-08 15:33 11.59573 83.28685 40839 ft 478 kts 117°
2026-05-08 15:33 11.56799 83.34849 40840 ft 478 kts 117°
2026-05-08 15:34 11.54076 83.41037 40843 ft 478 kts 116°
2026-05-08 15:34 11.51359 83.47227 40844 ft 478 kts 117°
2026-05-08 15:35 11.48635 83.53412 40845 ft 478 kts 117°
2026-05-08 15:35 11.45908 83.59584 40845 ft 476 kts 117°
2026-05-08 15:36 11.43649 83.64693 40848 ft 476 kts 117°
2026-05-08 15:36 11.40471 83.71874 40848 ft 476 kts 117°
2026-05-08 15:37 11.38209 83.76983 40848 ft 475 kts 117°
2026-05-08 15:37 11.35029 83.84161 40847 ft 475 kts 117°
2026-05-08 15:38 11.32765 83.89268 40847 ft 476 kts 117°
2026-05-08 15:38 11.30043 83.95404 40848 ft 476 kts 117°
2026-05-08 15:39 11.27317 84.01547 40847 ft 476 kts 117°
2026-05-08 15:39 11.24588 84.07691 40840 ft 476 kts 117°
2026-05-08 15:40 11.21855 84.13839 40844 ft 477 kts 116°
2026-05-08 15:40 11.19119 84.19992 40844 ft 477 kts 117°
2026-05-08 15:41 11.16384 84.26140 40843 ft 477 kts 117°
2026-05-08 15:41 11.13647 84.32286 40844 ft 475 kts 116°
2026-05-08 15:42 11.10921 84.38402 40842 ft 474 kts 116°
2026-05-08 15:42 11.08202 84.44501 40846 ft 473 kts 116°
2026-05-08 15:43 11.05480 84.50603 40845 ft 473 kts 116°
2026-05-08 15:43 11.02756 84.56703 40845 ft 473 kts 116°
2026-05-08 15:44 11.00031 84.62804 40846 ft 473 kts 116°
2026-05-08 15:44 10.97323 84.68860 40845 ft 473 kts 116°
2026-05-08 15:45 10.94597 84.74955 40844 ft 473 kts 116°
2026-05-08 15:45 10.91870 84.81047 40845 ft 473 kts 116°
2026-05-08 15:46 10.89146 84.87130 40847 ft 473 kts 116°
2026-05-08 15:46 10.86424 84.93204 40845 ft 471 kts 116°
2026-05-08 15:47 10.83706 84.99264 40848 ft 471 kts 116°
2026-05-08 15:47 10.80988 85.05323 40848 ft 471 kts 116°
2026-05-08 15:48 10.76903 85.14420 40850 ft 472 kts 116°
2026-05-08 15:49 10.74177 85.20485 40848 ft 472 kts 116°
2026-05-08 15:49 10.71449 85.26553 40848 ft 471 kts 116°
2026-05-08 15:50 10.68722 85.32614 40849 ft 472 kts 116°
2026-05-08 15:50 10.65996 85.38670 40847 ft 471 kts 116°
2026-05-08 15:51 10.63266 85.44731 40846 ft 472 kts 116°
2026-05-08 15:51 10.60534 85.50792 40848 ft 471 kts 116°
2026-05-08 15:52 10.57800 85.56854 40851 ft 472 kts 116°
2026-05-08 15:52 10.55068 85.62909 40848 ft 471 kts 116°
2026-05-08 15:53 10.52332 85.68968 40850 ft 471 kts 116°
2026-05-08 15:53 10.49617 85.74978 40849 ft 472 kts 116°
2026-05-08 15:54 10.46862 85.81072 40849 ft 471 kts 116°
2026-05-08 15:54 10.44142 85.87083 40851 ft 472 kts 116°
2026-05-08 15:55 10.41407 85.93127 40853 ft 471 kts 116°
2026-05-08 15:55 10.37297 86.02199 40849 ft 471 kts 116°
2026-05-08 15:56 10.34556 86.08246 40851 ft 472 kts 116°
2026-05-08 15:56 10.31812 86.14296 40851 ft 471 kts 116°
2026-05-08 15:57 10.29066 86.20347 40851 ft 472 kts 116°
2026-05-08 15:57 10.26317 86.26401 40850 ft 472 kts 116°
2026-05-08 15:58 10.23560 86.32467 40855 ft 473 kts 116°
2026-05-08 15:58 10.20806 86.38526 40854 ft 473 kts 116°
2026-05-08 15:59 10.18047 86.44589 40855 ft 473 kts 116°
2026-05-08 15:59 10.15289 86.50647 40855 ft 473 kts 116°
2026-05-08 16:00 10.12533 86.56700 40854 ft 472 kts 116°
2026-05-08 16:00 10.09796 86.62707 40856 ft 472 kts 116°
2026-05-08 16:01 10.07040 86.68752 40854 ft 472 kts 116°
2026-05-08 16:01 10.04278 86.74806 40857 ft 473 kts 116°
2026-05-08 16:02 10.01522 86.80845 40855 ft 473 kts 116°
2026-05-08 16:02 9.98758 86.86896 40855 ft 472 kts 116°
2026-05-08 16:03 9.95997 86.92940 40858 ft 472 kts 116°
2026-05-08 16:03 9.93232 86.98985 40856 ft 472 kts 115°
2026-05-08 16:04 9.90466 87.05031 40856 ft 473 kts 115°
2026-05-08 16:04 9.87700 87.11075 40856 ft 472 kts 115°
2026-05-08 16:05 9.84931 87.17120 40858 ft 473 kts 115°
2026-05-08 16:05 9.82166 87.23155 40861 ft 472 kts 115°
2026-05-08 16:06 9.79397 87.29193 40856 ft 472 kts 115°
2026-05-08 16:06 9.76630 87.35226 40856 ft 472 kts 116°
2026-05-08 16:07 9.73914 87.41286 40854 ft 472 kts 115°
2026-05-08 16:07 9.71249 87.47371 40854 ft 472 kts 115°
2026-05-08 16:08 9.68578 87.53450 40857 ft 472 kts 115°
2026-05-08 16:08 9.65897 87.59524 40856 ft 472 kts 115°
2026-05-08 16:09 9.63667 87.64563 40856 ft 472 kts 115°
2026-05-08 16:09 9.60525 87.71658 40860 ft 472 kts 115°
2026-05-08 16:10 9.57853 87.77689 40862 ft 473 kts 115°
2026-05-08 16:10 9.55160 87.83764 40861 ft 472 kts 115°
2026-05-08 16:11 9.52466 87.89837 40861 ft 473 kts 115°
2026-05-08 16:11 9.49772 87.95908 40861 ft 472 kts 115°
2026-05-08 16:12 9.47077 88.01980 40862 ft 473 kts 115°
2026-05-08 16:12 9.44381 88.08049 40862 ft 472 kts 115°
2026-05-08 16:13 9.41683 88.14118 40862 ft 472 kts 115°
2026-05-08 16:13 9.38989 88.20177 40862 ft 472 kts 115°
2026-05-08 16:14 9.36290 88.26243 40864 ft 472 kts 115°
2026-05-08 16:14 9.33591 88.32307 40865 ft 472 kts 115°
2026-05-08 16:15 9.30890 88.38370 40867 ft 472 kts 115°
2026-05-08 16:15 9.28188 88.44433 40868 ft 472 kts 115°
2026-05-08 16:16 9.25486 88.50493 40864 ft 472 kts 115°
2026-05-08 16:16 9.22805 88.56505 40865 ft 471 kts 115°
2026-05-08 16:17 9.20545 88.61567 40864 ft 471 kts 115°
2026-05-08 16:17 9.17390 88.68632 40867 ft 471 kts 115°
2026-05-08 16:18 9.14707 88.74638 40868 ft 471 kts 115°
2026-05-08 16:18 9.12004 88.80682 40867 ft 471 kts 115°
2026-05-08 16:19 9.09301 88.86726 40868 ft 471 kts 115°
2026-05-08 16:19 9.06599 88.92764 40874 ft 471 kts 115°
2026-05-08 16:20 9.03898 88.98795 40867 ft 470 kts 115°
2026-05-08 16:20 9.01198 89.04824 40867 ft 470 kts 115°
2026-05-08 16:21 8.98495 89.10853 40868 ft 470 kts 115°
2026-05-08 16:21 8.95792 89.16881 40867 ft 470 kts 115°
2026-05-08 16:22 8.93547 89.21886 40872 ft 470 kts 115°
2026-05-08 16:22 8.90387 89.28924 40871 ft 470 kts 115°
2026-05-08 16:23 8.87686 89.34938 40870 ft 470 kts 115°
2026-05-08 16:23 8.84985 89.40952 40872 ft 470 kts 115°
2026-05-08 16:24 8.82282 89.46963 40872 ft 470 kts 115°
2026-05-08 16:24 8.79578 89.52975 40873 ft 470 kts 115°
2026-05-08 16:25 8.76874 89.58984 40871 ft 470 kts 115°
2026-05-08 16:25 8.74627 89.63974 40874 ft 470 kts 115°
2026-05-08 16:26 8.71921 89.69982 40875 ft 470 kts 115°
2026-05-08 16:26 8.69213 89.75991 40877 ft 470 kts 115°
2026-05-08 16:27 8.66503 89.82002 40873 ft 470 kts 115°
2026-05-08 16:27 8.63791 89.88013 40875 ft 470 kts 115°
2026-05-08 16:28 8.61079 89.94022 40875 ft 470 kts 115°
2026-05-08 16:28 8.58368 90.00025 40889 ft 470 kts 115°
2026-05-08 16:29 8.55656 90.06029 40878 ft 469 kts 115°
2026-05-08 16:29 8.52947 90.12025 40878 ft 469 kts 115°
2026-05-08 16:30 8.50237 90.18018 40881 ft 469 kts 115°
2026-05-08 16:30 8.47526 90.24009 40881 ft 469 kts 115°
2026-05-08 16:31 8.44814 90.30000 40881 ft 469 kts 115°
2026-05-08 16:31 8.42101 90.35991 40881 ft 469 kts 115°
2026-05-08 16:32 8.39388 90.41981 40881 ft 469 kts 115°
2026-05-08 16:32 8.36675 90.47965 40881 ft 468 kts 115°
2026-05-08 16:33 8.33966 90.53940 40879 ft 468 kts 115°
2026-05-08 16:33 8.31256 90.59914 40878 ft 468 kts 115°
2026-05-08 16:34 8.28547 90.65881 40881 ft 467 kts 115°
2026-05-08 16:34 8.25839 90.71845 40881 ft 467 kts 115°
2026-05-08 16:35 8.23129 90.77808 40882 ft 467 kts 115°
2026-05-08 16:35 8.20418 90.83774 40884 ft 468 kts 115°
2026-05-08 16:36 8.17705 90.89740 40887 ft 468 kts 115°
2026-05-08 16:36 8.14990 90.95705 40886 ft 468 kts 115°
2026-05-08 16:37 8.12276 91.01669 40884 ft 468 kts 115°
2026-05-08 16:37 8.09581 91.07588 40883 ft 468 kts 115°
2026-05-08 16:38 8.06864 91.13552 40884 ft 468 kts 115°
2026-05-08 16:38 8.04145 91.19518 40887 ft 469 kts 115°
2026-05-08 16:39 8.01418 91.25497 40886 ft 469 kts 115°
2026-05-08 16:39 7.98690 91.31478 40886 ft 469 kts 115°
2026-05-08 16:40 7.95961 91.37457 40886 ft 469 kts 115°
2026-05-08 16:40 7.93231 91.43436 40886 ft 469 kts 115°
2026-05-08 16:41 7.90504 91.49406 40886 ft 469 kts 115°
2026-05-08 16:42 7.86405 91.58374 40893 ft 470 kts 115°
2026-05-08 16:42 7.83669 91.64357 40892 ft 470 kts 115°
2026-05-08 16:43 7.80941 91.70344 40892 ft 470 kts 115°
2026-05-08 16:43 7.78288 91.76364 40892 ft 470 kts 114°
2026-05-08 16:44 7.75652 91.82391 40891 ft 470 kts 114°
2026-05-08 16:44 7.73004 91.88413 40892 ft 470 kts 114°
2026-05-08 16:45 7.70349 91.94430 40890 ft 470 kts 115°
2026-05-08 16:45 7.67690 92.00448 40892 ft 470 kts 115°
2026-05-08 16:46 7.65032 92.06459 40892 ft 470 kts 115°
2026-05-08 16:46 7.62372 92.12476 40892 ft 470 kts 115°
2026-05-08 16:47 7.59711 92.18492 40895 ft 470 kts 115°
2026-05-08 16:47 7.57049 92.24507 40892 ft 470 kts 115°
2026-05-08 16:48 7.54387 92.30520 40893 ft 470 kts 115°
2026-05-08 16:48 7.51721 92.36542 40895 ft 471 kts 115°
2026-05-08 16:49 7.49050 92.42570 40891 ft 471 kts 115°
2026-05-08 16:49 7.46377 92.48599 40895 ft 471 kts 115°
2026-05-08 16:50 7.43706 92.54622 40895 ft 471 kts 115°
2026-05-08 16:50 7.41032 92.60650 40895 ft 471 kts 115°
2026-05-08 16:51 7.38374 92.66638 40895 ft 471 kts 115°
2026-05-08 16:51 7.35698 92.72662 40894 ft 471 kts 114°
2026-05-08 16:52 7.33025 92.78680 40897 ft 470 kts 115°
2026-05-08 16:52 7.30351 92.84696 40897 ft 471 kts 115°
2026-05-08 16:53 7.26339 92.93721 40900 ft 471 kts 115°
2026-05-08 16:53 7.23665 92.99731 40900 ft 471 kts 115°
2026-05-08 16:54 7.20987 93.05748 40901 ft 471 kts 114°
2026-05-08 16:54 7.18313 93.11753 40897 ft 469 kts 114°
2026-05-08 16:55 7.15644 93.17745 40897 ft 469 kts 114°
2026-05-08 16:55 7.12975 93.23736 40897 ft 469 kts 114°
2026-05-08 16:56 7.10305 93.29725 40897 ft 469 kts 114°
2026-05-08 16:56 7.07635 93.35713 40897 ft 469 kts 114°
2026-05-08 16:57 7.04981 93.41661 40897 ft 469 kts 115°
2026-05-08 16:57 7.02294 93.47681 40897 ft 469 kts 115°
2026-05-08 16:58 6.99638 93.53628 40897 ft 469 kts 115°
2026-05-08 16:58 6.96965 93.59614 40903 ft 469 kts 115°
2026-05-08 16:59 6.94291 93.65599 40903 ft 469 kts 115°
2026-05-08 16:59 6.91616 93.71583 40903 ft 469 kts 115°
2026-05-08 17:00 6.88940 93.77566 40905 ft 469 kts 115°
2026-05-08 17:00 6.86263 93.83549 40907 ft 469 kts 115°
2026-05-08 17:01 6.83586 93.89531 40904 ft 469 kts 115°
2026-05-08 17:01 6.80913 93.95502 40897 ft 467 kts 115°
2026-05-08 17:02 6.78246 94.01456 40897 ft 466 kts 115°
2026-05-08 17:02 6.75581 94.07403 40898 ft 466 kts 115°
2026-05-08 17:03 6.72916 94.13349 40899 ft 466 kts 115°
2026-05-08 17:03 6.70250 94.19295 40898 ft 466 kts 115°
2026-05-08 17:04 6.67586 94.25234 40893 ft 465 kts 115°
2026-05-08 17:04 6.64945 94.31118 40895 ft 464 kts 115°
2026-05-08 17:05 6.62287 94.37040 40894 ft 464 kts 115°
2026-05-08 17:05 6.59625 94.42951 40895 ft 465 kts 116°
2026-05-08 17:06 6.56567 94.48671 40892 ft 465 kts 120°
2026-05-08 17:06 6.53308 94.54289 40894 ft 465 kts 120°
2026-05-08 17:07 6.50094 94.59940 40897 ft 466 kts 120°
2026-05-08 17:07 6.46914 94.65650 40899 ft 469 kts 119°
2026-05-08 17:08 6.43740 94.71387 40893 ft 469 kts 119°
2026-05-08 17:08 6.40563 94.77127 40893 ft 470 kts 119°
2026-05-08 17:09 6.37381 94.82869 40893 ft 470 kts 119°
2026-05-08 17:09 6.34201 94.88604 40897 ft 470 kts 119°
2026-05-08 17:10 6.31016 94.94343 40896 ft 470 kts 119°
2026-05-08 17:10 6.27853 95.00043 40892 ft 470 kts 119°
2026-05-08 17:11 6.24671 95.05775 40893 ft 469 kts 119°
2026-05-08 17:11 6.21494 95.11510 40892 ft 470 kts 119°
2026-05-08 17:12 6.18332 95.17252 40892 ft 469 kts 119°
2026-05-08 17:12 6.15171 95.22995 40893 ft 470 kts 119°
2026-05-08 17:13 6.12006 95.28736 40893 ft 470 kts 119°
2026-05-08 17:13 6.08841 95.34475 40899 ft 470 kts 119°
2026-05-08 17:14 6.06210 95.39243 40898 ft 470 kts 119°
2026-05-08 17:14 6.03042 95.44984 40895 ft 470 kts 119°
2026-05-08 17:15 5.99875 95.50720 40898 ft 469 kts 119°
2026-05-08 17:15 5.96746 95.56476 40898 ft 469 kts 118°
2026-05-08 17:16 5.93656 95.62252 40897 ft 469 kts 118°
2026-05-08 17:16 5.90567 95.68019 40886 ft 469 kts 118°
2026-05-08 17:17 5.87465 95.73788 40887 ft 469 kts 118°
2026-05-08 17:17 5.84360 95.79555 40887 ft 469 kts 118°
2026-05-08 17:18 5.81254 95.85321 40889 ft 469 kts 118°
2026-05-08 17:18 5.78147 95.91087 40889 ft 469 kts 118°
2026-05-08 17:19 5.75041 95.96852 40900 ft 469 kts 118°
2026-05-08 17:19 5.71933 96.02617 40901 ft 469 kts 118°
2026-05-08 17:20 5.68825 96.08381 40900 ft 469 kts 118°
2026-05-08 17:20 5.65720 96.14138 40901 ft 469 kts 118°
2026-05-08 17:21 5.62612 96.19898 40900 ft 469 kts 118°
2026-05-08 17:21 5.59504 96.25656 40900 ft 469 kts 118°
2026-05-08 17:22 5.56397 96.31413 40898 ft 469 kts 118°
2026-05-08 17:22 5.53288 96.37170 40898 ft 469 kts 118°
2026-05-08 17:23 5.50200 96.42887 40898 ft 469 kts 118°
2026-05-08 17:23 5.47091 96.48642 40898 ft 469 kts 118°
2026-05-08 17:24 5.43983 96.54393 40903 ft 468 kts 118°
2026-05-08 17:24 5.40879 96.60135 40903 ft 468 kts 118°
2026-05-08 17:25 5.37772 96.65882 40903 ft 468 kts 118°
2026-05-08 17:25 5.34664 96.71628 40900 ft 468 kts 118°
2026-05-08 17:26 5.31556 96.77373 40898 ft 468 kts 118°
2026-05-08 17:26 5.28448 96.83118 40915 ft 468 kts 118°
2026-05-08 17:27 5.25340 96.88858 40908 ft 468 kts 118°
2026-05-08 17:27 5.22235 96.94592 40908 ft 467 kts 118°
2026-05-08 17:28 5.19130 97.00324 40904 ft 467 kts 118°
2026-05-08 17:28 5.16029 97.06048 40903 ft 467 kts 118°
2026-05-08 17:29 5.12924 97.11778 40916 ft 467 kts 118°
2026-05-08 17:29 5.09838 97.17470 40908 ft 467 kts 118°
2026-05-08 17:30 5.06732 97.23199 40909 ft 467 kts 118°
2026-05-08 17:30 5.03625 97.28927 40908 ft 467 kts 118°
2026-05-08 17:31 5.00518 97.34655 40900 ft 467 kts 118°
2026-05-08 17:31 4.97411 97.40382 40914 ft 467 kts 118°
2026-05-08 17:32 4.94303 97.46109 40911 ft 467 kts 118°
2026-05-08 17:32 4.91194 97.51835 40911 ft 467 kts 118°
2026-05-08 17:33 4.88091 97.57548 40913 ft 466 kts 118°
2026-05-08 17:33 4.84991 97.63258 40904 ft 467 kts 118°
2026-05-08 17:34 4.81882 97.68981 40915 ft 468 kts 118°
2026-05-08 17:34 4.78769 97.74709 40904 ft 468 kts 118°
2026-05-08 17:35 4.75655 97.80438 40898 ft 468 kts 118°
2026-05-08 17:35 4.72541 97.86166 40901 ft 468 kts 118°
2026-05-08 17:36 4.69426 97.91894 40889 ft 468 kts 118°
2026-05-08 17:36 4.66311 97.97621 40896 ft 468 kts 118°
2026-05-08 17:37 4.63192 98.03356 40895 ft 470 kts 118°
2026-05-08 17:37 4.60059 98.09113 40885 ft 470 kts 118°
2026-05-08 17:38 4.56925 98.14870 40887 ft 470 kts 118°
2026-05-08 17:38 4.53790 98.20628 40882 ft 470 kts 118°
2026-05-08 17:39 4.50674 98.26349 40876 ft 471 kts 118°
2026-05-08 17:39 4.47530 98.32122 40877 ft 472 kts 118°
2026-05-08 17:40 4.44383 98.37897 40875 ft 472 kts 118°
2026-05-08 17:40 4.41239 98.43666 40876 ft 472 kts 118°
2026-05-08 17:41 4.38092 98.49440 40884 ft 472 kts 118°
2026-05-08 17:41 4.34945 98.55211 40873 ft 472 kts 118°
2026-05-08 17:42 4.31798 98.60983 40873 ft 472 kts 118°
2026-05-08 17:42 4.28650 98.66754 40880 ft 472 kts 118°
2026-05-08 17:43 4.25502 98.72525 40876 ft 472 kts 118°
2026-05-08 17:43 4.22353 98.78295 40880 ft 472 kts 118°
2026-05-08 17:44 4.19202 98.84068 40885 ft 472 kts 118°
2026-05-08 17:44 4.16055 98.89833 40883 ft 472 kts 118°
2026-05-08 17:45 4.12903 98.95605 40888 ft 472 kts 118°
2026-05-08 17:45 4.09751 99.01377 40887 ft 472 kts 118°
2026-05-08 17:46 4.06598 99.07148 40883 ft 472 kts 118°
2026-05-08 17:46 4.03443 99.12923 40883 ft 473 kts 118°
2026-05-08 17:47 4.00278 99.18716 40883 ft 474 kts 118°
2026-05-08 17:47 3.97646 99.23531 40883 ft 475 kts 118°
2026-05-08 17:48 3.93940 99.30309 40878 ft 475 kts 118°
2026-05-08 17:48 3.90770 99.36106 40879 ft 475 kts 118°
2026-05-08 17:49 3.87598 99.41905 40878 ft 475 kts 118°
2026-05-08 17:49 3.84427 99.47702 40870 ft 475 kts 118°
2026-05-08 17:50 3.81265 99.53481 40877 ft 477 kts 118°
2026-05-08 17:50 3.78072 99.59316 40879 ft 478 kts 118°
2026-05-08 17:51 3.74877 99.65153 40874 ft 478 kts 118°
2026-05-08 17:51 3.71684 99.70986 40882 ft 478 kts 118°
2026-05-08 17:52 3.68485 99.76827 40878 ft 478 kts 118°
2026-05-08 17:53 3.63688 99.85586 40884 ft 478 kts 118°
2026-05-08 17:53 3.60486 99.91430 40881 ft 479 kts 118°
2026-05-08 17:54 3.57280 99.97281 40884 ft 479 kts 118°
2026-05-08 17:54 3.54073 100.03132 40885 ft 479 kts 118°
2026-05-08 17:55 3.50868 100.08980 40884 ft 479 kts 118°
2026-05-08 17:55 3.47664 100.14824 40883 ft 479 kts 118°
2026-05-08 17:56 3.44457 100.20674 40881 ft 479 kts 118°
2026-05-08 17:56 3.41245 100.26531 40885 ft 480 kts 118°
2026-05-08 17:57 3.38092 100.32440 40876 ft 481 kts 115°
2026-05-08 17:57 3.35294 100.38514 40881 ft 481 kts 113°
2026-05-08 17:58 3.32554 100.44617 40878 ft 481 kts 113°
2026-05-08 17:58 3.29761 100.50699 40878 ft 481 kts 114°
2026-05-08 17:59 3.26937 100.56763 40879 ft 481 kts 114°
2026-05-08 17:59 3.24097 100.62836 40868 ft 482 kts 114°
2026-05-08 18:00 3.21740 100.67880 40887 ft 482 kts 114°
2026-05-08 18:00 3.17027 100.77972 40889 ft 482 kts 114°
2026-05-08 18:01 3.14190 100.84046 40869 ft 482 kts 114°
2026-05-08 18:01 3.11816 100.89130 40884 ft 482 kts 114°
2026-05-08 18:02 3.08978 100.95203 40872 ft 482 kts 114°
2026-05-08 18:02 3.06148 101.01279 40868 ft 482 kts 113°
2026-05-08 18:03 3.03362 101.07325 40873 ft 482 kts 113°
2026-05-08 18:03 3.00560 101.13413 40870 ft 482 kts 113°
2026-05-08 18:04 2.97733 101.19485 40876 ft 483 kts 114°
2026-05-08 18:04 2.94860 101.25568 40867 ft 484 kts 114°
2026-05-08 18:05 2.91881 101.31611 40869 ft 485 kts 120°
2026-05-08 18:05 2.88036 101.37155 40865 ft 485 kts 125°
2026-05-08 18:06 2.83978 101.42562 40867 ft 486 kts 126°
2026-05-08 18:06 2.79885 101.47950 40870 ft 486 kts 126°
2026-05-08 18:07 2.75802 101.53346 40876 ft 486 kts 126°
2026-05-08 18:07 2.71732 101.58743 40882 ft 486 kts 126°
2026-05-08 18:08 2.67662 101.64145 40888 ft 486 kts 126°
2026-05-08 18:08 2.63590 101.69548 40884 ft 486 kts 125°
2026-05-08 18:09 2.59515 101.74954 40876 ft 487 kts 125°
2026-05-08 18:09 2.55436 101.80366 40872 ft 487 kts 125°
2026-05-08 18:10 2.51359 101.85783 40867 ft 487 kts 125°
2026-05-08 18:10 2.47280 101.91200 40863 ft 487 kts 125°
2026-05-08 18:11 2.43204 101.96607 40861 ft 487 kts 125°
2026-05-08 18:11 2.39125 102.02022 40861 ft 487 kts 125°
2026-05-08 18:12 2.35074 102.07399 40867 ft 487 kts 125°
2026-05-08 18:12 2.31003 102.12802 40867 ft 486 kts 125°
2026-05-08 18:13 2.26931 102.18208 40866 ft 486 kts 125°
2026-05-08 18:13 2.22862 102.23608 40882 ft 486 kts 125°
2026-05-08 18:14 2.18795 102.29005 40885 ft 486 kts 125°
2026-05-08 18:14 2.14725 102.34405 40883 ft 486 kts 125°
2026-05-08 18:15 2.10663 102.39795 40872 ft 486 kts 125°
2026-05-08 18:15 2.06599 102.45185 40872 ft 484 kts 126°
2026-05-08 18:16 2.02543 102.50566 40869 ft 484 kts 126°
2026-05-08 18:16 1.98494 102.55941 40871 ft 484 kts 126°
2026-05-08 18:17 1.94446 102.61316 40870 ft 484 kts 126°
2026-05-08 18:17 1.90398 102.66689 40869 ft 484 kts 126°
2026-05-08 18:18 1.86352 102.72060 40870 ft 484 kts 126°
2026-05-08 18:18 1.82308 102.77426 40396 ft 481 kts 126°
2026-05-08 18:19 1.80295 102.80097 39651 ft 482 kts 126°
2026-05-08 18:19 1.78301 102.82745 38902 ft 484 kts 126°
2026-05-08 18:19 1.76243 102.85474 38060 ft 486 kts 127°
2026-05-08 18:19 1.74234 102.88204 37136 ft 488 kts 123°
2026-05-08 18:20 1.72507 102.91072 36303 ft 489 kts 120°
2026-05-08 18:20 1.70856 102.94036 35571 ft 488 kts 119°
2026-05-08 18:20 1.69243 102.97014 34921 ft 486 kts 118°
2026-05-08 18:20 1.67653 102.99992 34201 ft 486 kts 118°
2026-05-08 18:21 1.66066 103.02983 33309 ft 488 kts 118°
2026-05-08 18:21 1.64466 103.05982 32432 ft 490 kts 120°
2026-05-08 18:21 1.62574 103.08827 31541 ft 493 kts 129°
2026-05-08 18:21 1.60206 103.11317 30611 ft 498 kts 139°
2026-05-08 18:22 1.57361 103.13298 29807 ft 500 kts 152°
2026-05-08 18:22 1.54215 103.14759 29051 ft 497 kts 158°
2026-05-08 18:22 1.51024 103.16060 28375 ft 493 kts 158°
2026-05-08 18:22 1.47856 103.17324 27709 ft 488 kts 158°
2026-05-08 18:23 1.44713 103.18576 27143 ft 483 kts 158°
2026-05-08 18:23 1.41643 103.19798 26995 ft 467 kts 158°
2026-05-08 18:23 1.38666 103.20980 26883 ft 452 kts 158°
2026-05-08 18:23 1.35786 103.22124 26715 ft 439 kts 158°
2026-05-08 18:24 1.32990 103.23234 26538 ft 427 kts 158°
2026-05-08 18:24 1.30266 103.24318 26334 ft 415 kts 158°
2026-05-08 18:24 1.27654 103.25358 26154 ft 404 kts 158°
2026-05-08 18:24 1.25057 103.26435 25939 ft 393 kts 154°
2026-05-08 18:25 1.22700 103.27691 25616 ft 387 kts 150°
2026-05-08 18:25 1.20380 103.29034 25230 ft 384 kts 149°
2026-05-08 18:25 1.18091 103.30369 24818 ft 381 kts 149°
2026-05-08 18:25 1.15805 103.31699 24426 ft 378 kts 149°
2026-05-08 18:26 1.13539 103.33014 24033 ft 375 kts 149°
2026-05-08 18:26 1.11288 103.34319 23643 ft 372 kts 149°
2026-05-08 18:26 1.09058 103.35610 23217 ft 369 kts 149°
2026-05-08 18:26 1.06854 103.36886 22907 ft 361 kts 149°
2026-05-08 18:27 1.04706 103.38129 22714 ft 351 kts 149°
2026-05-08 18:27 1.03290 103.38950 22569 ft 345 kts 149°
2026-05-08 18:27 1.00599 103.40512 22323 ft 331 kts 149°
2026-05-08 18:27 0.98779 103.41860 21984 ft 323 kts 133°
2026-05-08 18:28 0.97602 103.43717 21581 ft 315 kts 109°
2026-05-08 18:28 0.97180 103.45840 21232 ft 310 kts 96°
2026-05-08 18:28 0.97006 103.47975 20871 ft 307 kts 95°
2026-05-08 18:28 0.96855 103.50095 20497 ft 305 kts 95°
2026-05-08 18:29 0.96701 103.52194 20164 ft 301 kts 95°
2026-05-08 18:29 0.96543 103.54267 19850 ft 297 kts 95°
2026-05-08 18:29 0.96403 103.56314 19534 ft 293 kts 92°
2026-05-08 18:29 0.96525 103.58331 19218 ft 290 kts 84°
2026-05-08 18:30 0.96790 103.60313 18920 ft 286 kts 83°
2026-05-08 18:30 0.97071 103.62274 18609 ft 284 kts 83°
2026-05-08 18:30 0.97348 103.64217 18289 ft 281 kts 83°
2026-05-08 18:30 0.97620 103.66141 17972 ft 278 kts 83°
2026-05-08 18:31 0.97888 103.68044 17652 ft 275 kts 83°
2026-05-08 18:31 0.98151 103.69918 17353 ft 270 kts 83°
2026-05-08 18:31 0.98409 103.71765 17062 ft 266 kts 83°
2026-05-08 18:31 0.98668 103.73613 16807 ft 275 kts 83°
2026-05-08 18:32 0.98935 103.75542 16631 ft 284 kts 83°
2026-05-08 18:32 0.99205 103.77482 16405 ft 285 kts 83°
2026-05-08 18:32 0.99478 103.79445 16015 ft 286 kts 83°
2026-05-08 18:32 0.99753 103.81418 15579 ft 287 kts 83°
2026-05-08 18:33 1.00024 103.83359 15238 ft 285 kts 83°
2026-05-08 18:33 1.00293 103.85306 14928 ft 282 kts 84°
2026-05-08 18:33 1.00547 103.87239 14627 ft 280 kts 84°
2026-05-08 18:33 1.00799 103.89169 14325 ft 280 kts 84°
2026-05-08 18:34 1.01052 103.91095 14023 ft 279 kts 84°
2026-05-08 18:34 1.01304 103.93014 13738 ft 278 kts 84°
2026-05-08 18:34 1.01555 103.94928 13407 ft 277 kts 84°
2026-05-08 18:34 1.01965 103.96805 13094 ft 278 kts 70°
2026-05-08 18:35 1.02908 103.98484 12806 ft 277 kts 57°
2026-05-08 18:35 1.04024 104.00044 12603 ft 276 kts 55°
2026-05-08 18:35 1.05153 104.01583 12343 ft 274 kts 55°
2026-05-08 18:35 1.06275 104.03118 12056 ft 273 kts 55°
2026-05-08 18:36 1.07386 104.04647 11768 ft 272 kts 56°
2026-05-08 18:36 1.08492 104.06174 11465 ft 270 kts 56°
2026-05-08 18:36 1.09592 104.07694 11189 ft 269 kts 56°
2026-05-08 18:36 1.10683 104.09205 10890 ft 268 kts 56°
2026-05-08 18:37 1.11776 104.10718 10612 ft 267 kts 55°
2026-05-08 18:37 1.12870 104.12219 10324 ft 267 kts 53°
2026-05-08 18:37 1.14216 104.13482 10038 ft 267 kts 32°
2026-05-08 18:37 1.15866 104.14305 9760 ft 264 kts 24°
2026-05-08 18:38 1.17553 104.15016 9463 ft 262 kts 23°
2026-05-08 18:38 1.19232 104.15716 9160 ft 261 kts 24°
2026-05-08 18:38 1.20902 104.16417 8880 ft 260 kts 24°
2026-05-08 18:38 1.22566 104.17120 8618 ft 259 kts 24°
2026-05-08 18:39 1.24222 104.17823 8330 ft 258 kts 24°
2026-05-08 18:39 1.25870 104.18524 8056 ft 257 kts 24°
2026-05-08 18:39 1.27512 104.19223 7778 ft 256 kts 24°
2026-05-08 18:39 1.29146 104.19919 7506 ft 255 kts 24°
2026-05-08 18:40 1.30775 104.20613 7225 ft 254 kts 24°
2026-05-08 18:40 1.32440 104.21192 6961 ft 254 kts 11°
2026-05-08 18:40 1.34186 104.21153 6704 ft 251 kts 351°
2026-05-08 18:40 1.35893 104.20807 6435 ft 249 kts 348°
2026-05-08 18:41 1.37579 104.20429 6158 ft 248 kts 348°
2026-05-08 18:41 1.39257 104.20057 5914 ft 245 kts 348°
2026-05-08 18:41 1.40886 104.19700 5759 ft 235 kts 348°
2026-05-08 18:41 1.42447 104.19359 5620 ft 225 kts 348°
2026-05-08 18:42 1.43957 104.19030 5389 ft 220 kts 348°
2026-05-08 18:42 1.45449 104.18706 5112 ft 218 kts 348°
2026-05-08 18:42 1.46926 104.18387 4834 ft 217 kts 348°
2026-05-08 18:42 1.48399 104.18070 4570 ft 214 kts 348°
2026-05-08 18:43 1.49831 104.17755 4405 ft 208 kts 346°
2026-05-08 18:43 1.51132 104.17147 4270 ft 208 kts 319°
2026-05-08 18:43 1.51861 104.15943 4153 ft 205 kts 282°
2026-05-08 18:43 1.51822 104.14537 3996 ft 203 kts 260°
2026-05-08 18:44 1.51518 104.13160 3805 ft 203 kts 258°
2026-05-08 18:44 1.51188 104.11797 3565 ft 200 kts 258°
2026-05-08 18:44 1.50875 104.10480 3396 ft 195 kts 258°
2026-05-08 18:44 1.50569 104.09161 3188 ft 196 kts 258°
2026-05-08 18:45 1.50266 104.07833 3002 ft 196 kts 258°
2026-05-08 18:45 1.49967 104.06506 2849 ft 196 kts 258°
2026-05-08 18:45 1.49663 104.05186 2715 ft 193 kts 257°
2026-05-08 18:45 1.48995 104.04056 2457 ft 188 kts 225°
2026-05-08 18:46 1.48004 104.03240 2217 ft 182 kts 213°
2026-05-08 18:46 1.46857 104.02768 1990 ft 176 kts 200°
2026-05-08 18:46 1.45742 104.02346 1748 ft 166 kts 204°
2026-05-08 18:46 1.44730 104.01887 1544 ft 155 kts 205°
2026-05-08 18:47 1.43762 104.01482 1339 ft 146 kts 204°
2026-05-08 18:47 1.42848 104.01101 1162 ft 140 kts 205°
2026-05-08 18:47 1.41954 104.00722 986 ft 140 kts 205°
2026-05-08 18:47 1.41057 104.00341 811 ft 140 kts 204°
2026-05-08 18:48 1.40161 103.99960 620 ft 139 kts 202°
2026-05-08 18:48 1.39273 103.99596 430 ft 137 kts 202°
2026-05-08 18:48 1.38394 103.99227 266 ft 137 kts 203°
2026-05-08 18:48 1.37518 103.98855 61 ft 136 kts 202°
2026-05-08 18:49 1.36692 103.98508 30 ft 116 kts 202°
2026-05-08 18:49 1.36182 103.98293 30 ft 42 kts 203°
2026-05-08 18:49 1.35918 103.98182 30 ft 40 kts 203°
2026-05-08 18:49 1.35718 103.98114 30 ft 26 kts 187°
2026-05-08 18:50 1.35565 103.98121 30 ft 20 kts 173°
2026-05-08 18:50 1.35441 103.98134 30 ft 17 kts 174°
2026-05-08 18:50 1.35365 103.98142 30 ft 12 kts 174°
2026-05-08 18:50 1.35330 103.98155 30 ft 3 kts 130°
2026-05-08 18:51 1.35314 103.98188 30 ft 7 kts 115°
2026-05-08 18:51 1.35276 103.98200 30 ft 7 kts 188°
2026-05-08 18:51 1.35213 103.98179 30 ft 11 kts 203°
2026-05-08 18:51 1.35134 103.98145 30 ft 14 kts 202°
2026-05-08 18:52 1.35035 103.98103 30 ft 17 kts 203°
2026-05-08 18:52 1.34945 103.98065 30 ft 10 kts 203°
2026-05-08 18:52 1.34886 103.98063 30 ft 9 kts 142°
2026-05-08 18:52 1.34855 103.98122 30 ft 8 kts 113°
2026-05-08 18:53 1.34853 103.98128 30 ft 0 kts 113°
2026-05-08 18:53 1.34852 103.98130 30 ft 1 kts 113°
2026-05-08 18:53 1.34843 103.98150 30 ft 5 kts 113°
2026-05-08 18:53 1.34833 103.98192 30 ft 6 kts 77°
2026-05-08 18:54 1.34864 103.98216 30 ft 4 kts 29°
2026-05-08 18:54 1.34878 103.98224 30 ft 0 kts 29°
2026-05-08 18:54 1.34880 103.98225 30 ft 0 kts 29°
2026-05-08 18:55 1.34884 103.98227 30 ft 1 kts 30°
2026-05-08 18:55 1.34885 103.98228 30 ft 0 kts 30°